Time,TemperatureF,DewpointF,PressureIn,WindDirection,WindDirectionDegrees,WindSpeedMPH,WindSpeedGustMPH,Humidity,HourlyPrecipIn,Conditions,Clouds,dailyrainin,SoftwareType,DateUTC
2013-05-05 00:52:00,59.0,23.0,-100.00,North,6,7.0,22.0,25,-99.99,,,-99.99,,2013-05-05 00:52:00,
2013-05-05 01:01:00,58.0,23.0,-100.00,North,10,9.0,19.0,26,-99.99,,,-99.99,,2013-05-05 01:01:00,
2013-05-05 01:11:00,58.0,23.0,-100.00,North,10,9.0,19.0,26,-99.99,,,-99.99,,2013-05-05 01:11:00,
2013-05-05 01:21:00,57.0,23.0,-100.00,North,360,11.0,24.0,27,-99.99,,,-99.99,,2013-05-05 01:21:00,
2013-05-05 01:32:00,57.0,24.0,-100.00,North,357,13.0,25.0,28,-99.99,,,-99.99,,2013-05-05 01:32:00,
2013-05-05 01:42:00,57.0,24.0,-100.00,North,357,13.0,25.0,28,-99.99,,,-99.99,,2013-05-05 01:42:00,
2013-05-05 01:52:00,56.0,26.0,-100.00,North,4,12.0,28.0,31,-99.99,,,-99.99,,2013-05-05 01:52:00,
2013-05-05 02:02:00,56.0,26.0,-100.00,North,4,12.0,28.0,31,-99.99,,,-99.99,,2013-05-05 02:02:00,
2013-05-05 02:11:00,56.0,26.0,-100.00,North,4,12.0,28.0,31,-99.99,,,-99.99,,2013-05-05 02:11:00,
2013-05-05 02:21:00,56.0,26.0,-100.00,North,4,12.0,28.0,31,-99.99,,,-99.99,,2013-05-05 02:21:00,
2013-05-05 04:02:00,52.0,28.0,-100.00,NNE,16,4.0,10.0,40,-99.99,,,-99.99,,2013-05-05 04:02:00,
2013-05-05 04:12:00,51.0,28.0,-100.00,North,4,3.0,10.0,40,-99.99,,,-99.99,,2013-05-05 04:12:00,
2013-05-05 04:22:00,51.0,28.0,-100.00,SW,233,2.0,12.0,40,-99.99,,,-99.99,,2013-05-05 04:22:00,
2013-05-05 04:32:00,51.0,28.0,-100.00,SW,233,3.0,12.0,41,-99.99,,,-99.99,,2013-05-05 04:32:00,
2013-05-05 04:43:00,51.0,27.0,-100.00,WSW,244,2.0,12.0,40,-99.99,,,-99.99,,2013-05-05 04:43:00,
2013-05-05 04:52:00,51.0,28.0,-100.00,WSW,239,2.0,8.0,41,-99.99,,,-99.99,,2013-05-05 04:52:00,
2013-05-05 05:02:00,51.0,27.0,-100.00,SW,227,0.0,5.0,40,-99.99,,,-99.99,,2013-05-05 05:02:00,
2013-05-05 05:12:00,51.0,28.0,-100.00,West,275,0.0,6.0,40,-99.99,,,-99.99,,2013-05-05 05:12:00,
2013-05-05 05:21:00,51.0,27.0,-100.00,SW,227,1.0,8.0,40,-99.99,,,-99.99,,2013-05-05 05:21:00,
2013-05-05 05:31:00,50.0,27.0,-100.00,SSW,208,0.0,9.0,41,-99.99,,,-99.99,,2013-05-05 05:31:00,
2013-05-05 05:42:00,50.0,27.0,-100.00,SSW,208,0.0,9.0,41,-99.99,,,-99.99,,2013-05-05 05:42:00,
2013-05-05 05:51:00,50.0,27.0,-100.00,WSW,240,1.0,11.0,41,-99.99,,,-99.99,,2013-05-05 05:51:00,
2013-05-05 06:01:00,51.0,27.0,-100.00,West,261,0.0,11.0,40,-99.99,,,-99.99,,2013-05-05 06:01:00,
2013-05-05 06:12:00,48.0,28.0,-100.00,SW,232,0.0,6.0,46,-99.99,,,-99.99,,2013-05-05 06:12:00,
2013-05-05 06:21:00,48.0,29.0,-100.00,West,261,0.0,8.0,47,-99.99,,,-99.99,,2013-05-05 06:21:00,
2013-05-05 06:32:00,48.0,29.0,-100.00,NW,325,1.0,12.0,47,-99.99,,,-99.99,,2013-05-05 06:32:00,
2013-05-05 06:42:00,48.0,29.0,-100.00,NW,322,1.0,12.0,47,-99.99,,,-99.99,,2013-05-05 06:42:00,
2013-05-05 06:51:00,48.0,27.0,-100.00,NW,320,0.0,9.0,44,-99.99,,,-99.99,,2013-05-05 06:51:00,
2013-05-05 07:01:00,49.0,28.0,-100.00,SW,215,0.0,2.0,44,-99.99,,,-99.99,,2013-05-05 07:01:00,
2013-05-05 07:11:00,48.0,27.0,-100.00,WNW,287,0.0,1.0,44,-99.99,,,-99.99,,2013-05-05 07:11:00,
2013-05-05 07:21:00,48.0,27.0,-100.00,WNW,287,0.0,1.0,44,-99.99,,,-99.99,,2013-05-05 07:21:00,
2013-05-05 07:32:00,48.0,27.0,-100.00,WNW,287,0.0,1.0,44,-99.99,,,-99.99,,2013-05-05 07:32:00,
2013-05-05 07:42:00,48.0,27.0,-100.00,WNW,287,0.0,1.0,44,-99.99,,,-99.99,,2013-05-05 07:42:00,
2013-05-05 12:52:00,42.0,39.0,-100.00,West,280,4.0,15.0,89,-99.99,,,-99.99,,2013-05-05 12:52:00,
2013-05-05 13:01:00,42.0,39.0,-100.00,SSW,209,3.0,5.0,89,-99.99,,,-99.99,,2013-05-05 13:01:00,
2013-05-05 13:11:00,42.0,39.0,-100.00,SSW,209,3.0,5.0,89,-99.99,,,-99.99,,2013-05-05 13:11:00,
2013-05-05 13:21:00,44.0,37.0,-100.00,WSW,246,1.0,3.0,77,-99.99,,,-99.99,,2013-05-05 13:21:00,
2013-05-05 13:32:00,44.0,37.0,-100.00,WSW,248,1.0,13.0,76,-99.99,,,-99.99,,2013-05-05 13:32:00,
2013-05-05 13:42:00,44.0,37.0,-100.00,WSW,248,1.0,13.0,76,-99.99,,,-99.99,,2013-05-05 13:42:00,
2013-05-05 13:52:00,44.0,38.0,-100.00,WNW,295,0.0,16.0,80,-99.99,,,-99.99,,2013-05-05 13:52:00,
2013-05-05 14:01:00,42.0,39.0,-100.00,SSE,152,3.0,8.0,87,-99.99,,,-99.99,,2013-05-05 14:01:00,
2013-05-05 14:11:00,42.0,39.0,-100.00,SSE,152,3.0,8.0,87,-99.99,,,-99.99,,2013-05-05 14:11:00,
2013-05-05 14:21:00,41.0,39.0,-100.00,West,274,4.0,12.0,92,-99.99,,,-99.99,,2013-05-05 14:21:00,
2013-05-05 14:31:00,41.0,39.0,-100.00,WNW,288,3.0,11.0,92,-99.99,,,-99.99,,2013-05-05 14:31:00,
2013-05-05 14:42:00,41.0,39.0,-100.00,WNW,288,3.0,11.0,92,-99.99,,,-99.99,,2013-05-05 14:42:00,
2013-05-05 14:51:00,43.0,40.0,-100.00,South,174,3.0,7.0,88,-99.99,,,-99.99,,2013-05-05 14:51:00,
2013-05-05 15:01:00,43.0,39.0,-100.00,South,171,5.0,16.0,86,-99.99,,,-99.99,,2013-05-05 15:01:00,
2013-05-05 15:11:00,43.0,39.0,-100.00,South,171,5.0,16.0,86,-99.99,,,-99.99,,2013-05-05 15:11:00,
2013-05-05 15:21:00,44.0,40.0,-100.00,NW,305,1.0,7.0,86,-99.99,,,-99.99,,2013-05-05 15:21:00,
2013-05-05 15:32:00,45.0,39.0,-100.00,NNW,329,3.0,20.0,79,-99.99,,,-99.99,,2013-05-05 15:32:00,
2013-05-05 15:43:00,45.0,39.0,-100.00,NNW,329,3.0,20.0,79,-99.99,,,-99.99,,2013-05-05 15:43:00,
2013-05-05 15:51:00,45.0,41.0,-100.00,SE,134,2.0,10.0,86,-99.99,,,-99.99,,2013-05-05 15:51:00,
2013-05-05 15:53:00,48.0,42.0,-100.00,East,92,3.0,11.0,81,-99.99,,,-99.99,,2013-05-05 15:53:00,
2013-05-05 16:02:00,47.0,42.0,-100.00,East,96,3.0,11.0,82,-99.99,,,-99.99,,2013-05-05 16:02:00,
2013-05-05 16:12:00,47.0,42.0,-100.00,East,96,3.0,11.0,82,-99.99,,,-99.99,,2013-05-05 16:12:00,
2013-05-05 16:22:00,45.0,41.0,-100.00,SE,134,2.0,10.0,86,-99.99,,,-99.99,,2013-05-05 16:22:00,
2013-05-05 16:32:00,45.0,41.0,-100.00,SE,134,2.0,10.0,86,-99.99,,,-99.99,,2013-05-05 16:32:00,
2013-05-05 16:42:00,45.0,41.0,-100.00,SE,134,2.0,10.0,86,-99.99,,,-99.99,,2013-05-05 16:42:00,
2013-05-05 22:22:00,56.0,41.0,-100.00,ESE,110,5.0,10.0,56,-99.99,,,-99.99,,2013-05-05 22:22:00,
2013-05-05 22:33:00,56.0,41.0,-100.00,ESE,113,4.0,10.0,57,-99.99,,,-99.99,,2013-05-05 22:33:00,
2013-05-05 22:42:00,57.0,40.0,-100.00,ESE,103,2.0,7.0,52,-99.99,,,-99.99,,2013-05-05 22:42:00,
2013-05-05 22:52:00,57.0,40.0,-100.00,ESE,103,2.0,7.0,52,-99.99,,,-99.99,,2013-05-05 22:52:00,
2013-05-05 23:02:00,57.0,40.0,-100.00,SE,130,4.0,8.0,52,-99.99,,,-99.99,,2013-05-05 23:02:00,
2013-05-05 23:11:00,57.0,40.0,-100.00,SE,130,4.0,8.0,52,-99.99,,,-99.99,,2013-05-05 23:11:00,
2013-05-05 23:21:00,57.0,40.0,-100.00,SE,130,4.0,8.0,52,-99.99,,,-99.99,,2013-05-05 23:21:00,
2013-05-05 23:31:00,58.0,40.0,-100.00,ESE,109,5.0,11.0,51,-99.99,,,-99.99,,2013-05-05 23:31:00,
2013-05-05 23:42:00,58.0,40.0,-100.00,ESE,109,5.0,11.0,51,-99.99,,,-99.99,,2013-05-05 23:42:00,
2013-05-05 23:52:00,58.0,40.0,-100.00,ENE,65,2.0,10.0,52,-99.99,,,-99.99,,2013-05-05 23:52:00,